Le nostre stazioni meteo in Italia

Pubblicità
Il mio iltempo24.it
Grenoble le Versoud, Francia (7487): Temperatura & dewpoint: 08.11.2019 09:00:00 - 14.11.2019 09:00:00 (CET)Grenoble le Versoud, Francia (7487): velocità del vento & gusts: 08.11.2019 09:00:00 - 14.11.2019 09:00:00 (CET)Grenoble le Versoud, Francia (7487): direzione del vento: 08.11.2019 09:00:00 - 14.11.2019 09:00:00 (CET)Grenoble le Versoud, Francia (7487): reduced air pressure: 08.11.2019 09:00:00 - 14.11.2019 09:00:00 (CET)Grenoble le Versoud, Francia (7487): precipitazioni: 08.11.2019 09:00:00 - 14.11.2019 09:00:00 (CET)
Data & Tempo tt [°C] td [°C] ff [km/h] ff [kn] fx [km/h] fx [kn] dd ppp [hPa] rr [mm]
14.11.2019 09:00:00 3,0 1,0 2 1 13 7 NO 1002,4 0,0
14.11.2019 08:00:00 2,6 1,0 5 3 13 7 NNE 1002,6 0,0
14.11.2019 07:00:00 2,1 0,8 8 4 13 7 NE 1002,4 -
14.11.2019 06:00:00 1,6 0,7 8 4 15 8 NE 1002,7 0,0
14.11.2019 05:00:00 0,8 0,2 4 2 8 4 NE 1003,0 0,0
14.11.2019 04:00:00 0,4 -0,2 2 1 8 4 ENE 1004,0 -
14.11.2019 03:00:00 -0,1 -0,7 4 2 8 4 NNE 1004,9 0,0
14.11.2019 02:00:00 -0,1 -0,4 4 2 5 3 ENE 1005,6 0,0
14.11.2019 01:00:00 -1,3 -2,1 0 0 5 3 N 1006,1 -
14.11.2019 00:00:00 -0,6 -1,4 4 2 5 3 O 1007,1 0,0
13.11.2019 23:00:00 0,6 -0,1 2 1 8 4 ENE 1007,7 0,0
13.11.2019 22:00:00 1,0 0,0 2 1 8 4 ONO 1007,8 0,0
13.11.2019 21:00:00 0,8 -0,8 4 2 8 4 NE 1008,8 0,0
13.11.2019 20:00:00 2,1 0,6 2 1 8 4 O 1008,9 0,0
13.11.2019 19:00:00 3,1 1,1 2 1 5 3 NO 1008,7 -
13.11.2019 18:00:00 4,6 1,3 2 1 5 3 OSO 1007,9 0,0
13.11.2019 17:00:00 7,1 1,6 0 0 11 6 N 1007,3 0,0
13.11.2019 16:00:00 9,9 2,3 2 1 16 9 SSO 1006,8 0,0
13.11.2019 15:00:00 9,7 2,8 8 4 18 10 SO 1006,3 0,0
13.11.2019 14:00:00 9,4 2,7 5 3 26 14 O 1006,3 0,0
13.11.2019 13:00:00 9,0 1,9 8 4 18 10 NNE 1006,7 -
13.11.2019 12:00:00 8,0 2,9 4 2 9 5 O 1007,3 0,0
13.11.2019 11:00:00 7,0 2,5 4 2 8 4 S 1007,6 0,0
13.11.2019 10:00:00 4,5 1,7 2 1 8 4 SO 1008,1 0,0
13.11.2019 09:00:00 1,0 0,6 0 0 8 4 N 1007,7 0,0
13.11.2019 08:00:00 0,0 -0,4 2 1 5 3 SE 1007,1 0,0
13.11.2019 07:00:00 0,0 -1,1 0 0 5 3 N 1006,1 -
13.11.2019 06:00:00 1,5 0,5 2 1 4 2 SE 1005,3 0,0
13.11.2019 05:00:00 1,9 0,7 0 0 5 3 N 1005,7 0,0
13.11.2019 04:00:00 2,8 1,2 2 1 8 4 SE 1005,6 0,0
13.11.2019 03:00:00 2,5 1,0 5 3 9 5 E 1005,8 0,0
13.11.2019 02:00:00 1,5 0,5 8 4 11 6 SO 1005,5 0,0
13.11.2019 01:00:00 1,9 0,3 2 1 8 4 N 1005,2 -
13.11.2019 00:00:00 1,9 0,3 4 2 13 7 SSO 1005,2 0,0
12.11.2019 23:00:00 1,9 -0,4 5 3 15 8 N 1005,6 0,0
12.11.2019 22:00:00 0,7 -0,5 4 2 5 3 N 1006,5 0,0
12.11.2019 21:00:00 2,3 0,8 4 2 9 5 ESE 1006,3 0,0
12.11.2019 20:00:00 3,1 0,5 0 0 5 3 N 1006,7 0,0
12.11.2019 19:00:00 4,7 1,0 4 2 5 3 SSE 1006,8 -
12.11.2019 18:00:00 6,8 1,3 2 1 22 12 ESE 1006,7 0,0
12.11.2019 17:00:00 8,6 1,3 16 9 28 15 N 1006,3 0,0
12.11.2019 16:00:00 10,3 0,6 18 10 35 19 NNE 1006,1 0,0
12.11.2019 15:00:00 10,8 2,1 22 12 31 17 NNE 1006,1 0,0
12.11.2019 14:00:00 10,6 1,9 22 12 31 17 NNE 1006,5 0,0
12.11.2019 13:00:00 10,2 3,7 18 10 28 15 NNE 1007,8 0,0
12.11.2019 12:00:00 9,8 3,5 8 4 21 11 ENE 1009,2 -
12.11.2019 11:00:00 7,5 3,9 5 3 13 7 S 1010,2 0,0
12.11.2019 10:00:00 5,4 3,6 5 3 9 5 SSE 1011,0 0,0
12.11.2019 09:00:00 2,1 2,0 2 1 11 6 SSO 1011,8 0,0
12.11.2019 08:00:00 1,7 1,6 4 2 13 7 SSO 1011,6 0,0
12.11.2019 07:00:00 2,7 2,6 4 2 9 5 SSE 1011,7 -
12.11.2019 06:00:00 3,1 2,8 0 0 5 3 N 1011,8 0,0
12.11.2019 05:00:00 3,3 2,9 2 1 5 3 SSO 1011,9 0,0
12.11.2019 04:00:00 3,9 3,3 0 0 4 2 N 1012,1 0,0
12.11.2019 03:00:00 4,8 4,2 2 1 4 2 O 1012,5 0,0
12.11.2019 02:00:00 5,3 4,7 2 1 4 2 ONO 1012,8 0,2
12.11.2019 01:00:00 5,4 4,7 2 1 8 4 ENE 1012,9 -
12.11.2019 00:00:00 5,4 4,5 5 3 9 5 ONO 1013,0 0,0
11.11.2019 23:00:00 5,0 4,3 0 0 9 5 N 1012,4 0,0
11.11.2019 22:00:00 4,1 3,7 2 1 8 4 SE 1011,9 0,0
11.11.2019 21:00:00 4,1 3,2 0 0 8 4 N 1011,4 0,0
11.11.2019 20:00:00 4,0 2,5 0 0 5 3 N 1010,8 0,0
11.11.2019 19:00:00 4,6 2,5 4 2 5 3 N 1010,7 -
11.11.2019 18:00:00 7,1 3,9 4 2 11 6 NE 1010,1 0,0
11.11.2019 17:00:00 8,6 4,2 8 4 15 8 NE 1010,1 0,0
11.11.2019 16:00:00 9,7 4,5 4 2 5 3 NNE 1009,7 0,0
11.11.2019 15:00:00 10,0 3,7 0 0 5 3 N 1009,8 0,0
11.11.2019 14:00:00 10,1 3,8 4 2 9 5 SE 1010,0 0,0
11.11.2019 13:00:00 8,9 3,7 4 2 8 4 NNE 1010,7 -
11.11.2019 12:00:00 8,6 3,4 0 0 8 4 N 1012,1 0,0
11.11.2019 11:00:00 8,1 2,7 2 1 13 7 E 1013,0 0,0
11.11.2019 10:00:00 6,2 3,0 8 4 15 8 NNE 1013,6 0,0
11.11.2019 09:00:00 5,4 2,7 5 3 13 7 ENE 1014,4 0,0
11.11.2019 08:00:00 4,9 2,8 5 3 22 12 NE 1014,7 0,0
11.11.2019 07:00:00 5,4 3,4 8 4 16 9 E 1014,3 -
11.11.2019 06:00:00 5,6 3,4 9 5 16 9 NNE 1014,5 0,0
11.11.2019 05:00:00 6,1 4,4 2 1 8 4 NE 1015,1 0,0
11.11.2019 04:00:00 6,3 3,6 0 0 5 3 N 1014,0 0,0
11.11.2019 03:00:00 6,5 4,2 0 0 5 3 N 1015,4 0,0
11.11.2019 02:00:00 6,7 4,2 0 0 5 3 N 1015,2 0,0
11.11.2019 01:00:00 6,6 4,8 2 1 8 4 ENE 1014,6 -
11.11.2019 00:00:00 6,7 5,3 0 0 4 2 N 1014,3 0,0
10.11.2019 23:00:00 6,7 5,0 2 1 4 2 SE 1014,1 0,0
10.11.2019 22:00:00 6,5 5,1 0 0 5 3 N 1014,4 0,0
10.11.2019 21:00:00 6,4 4,9 0 0 5 3 N 1014,1 0,0
10.11.2019 20:00:00 6,5 4,7 0 0 8 4 N 1014,1 0,0
10.11.2019 19:00:00 6,2 4,4 0 0 5 3 N 1013,7 -
10.11.2019 18:00:00 5,9 3,9 0 0 4 2 N 1013,0 0,0
10.11.2019 17:00:00 8,1 4,7 0 0 5 3 N 1011,9 0,0
10.11.2019 16:00:00 8,7 3,9 4 2 5 3 SO 1011,4 0,0
10.11.2019 15:00:00 9,0 4,0 0 0 8 4 N 1011,1 0,0
10.11.2019 14:00:00 8,5 3,7 2 1 8 4 O 1011,1 0,0
10.11.2019 13:00:00 7,8 3,1 2 1 5 3 NNO 1011,1 -
10.11.2019 12:00:00 7,6 2,9 2 1 8 4 ENE 1011,1 0,0
10.11.2019 11:00:00 6,8 2,5 4 2 8 4 SSE 1010,9 0,0
10.11.2019 10:00:00 5,5 2,8 2 1 5 3 S 1010,8 0,0
10.11.2019 09:00:00 4,6 2,8 0 0 5 3 N 1010,7 0,0
10.11.2019 08:00:00 4,4 3,1 4 2 8 4 N 1010,4 0,0
10.11.2019 07:00:00 4,2 3,2 4 2 5 3 ENE 1009,9 -
10.11.2019 06:00:00 4,2 3,3 2 1 5 3 NNO 1009,5 0,0
10.11.2019 05:00:00 4,1 3,4 4 2 8 4 NE 1009,3 0,0
10.11.2019 04:00:00 4,0 3,3 5 3 9 5 O 1009,7 0,0
10.11.2019 03:00:00 3,6 3,0 4 2 8 4 SO 1009,6 0,0
10.11.2019 02:00:00 3,1 2,7 5 3 9 5 NE 1009,2 0,0
10.11.2019 01:00:00 2,4 2,0 0 0 5 3 N 1009,5 -
10.11.2019 00:00:00 2,4 1,8 0 0 8 4 N 1010,0 0,0
09.11.2019 23:00:00 2,6 1,7 5 3 8 4 N 1010,4 0,0
09.11.2019 22:00:00 3,5 2,3 0 0 8 4 N 1009,7 0,0
09.11.2019 21:00:00 5,1 2,9 0 0 5 3 N 1009,7 0,0
09.11.2019 20:00:00 6,5 3,5 4 2 8 4 SSO 1009,8 0,0
09.11.2019 19:00:00 7,5 4,1 4 2 8 4 SO 1009,9 -
09.11.2019 18:00:00 8,4 4,6 4 2 11 6 O 1010,0 0,0
09.11.2019 17:00:00 9,9 3,8 8 4 11 6 S 1010,3 0,0
09.11.2019 16:00:00 11,7 3,9 5 3 16 9 SSO 1010,3 0,0
09.11.2019 15:00:00 11,8 4,0 8 4 13 7 OSO 1010,7 0,0
09.11.2019 14:00:00 11,1 4,5 8 4 15 8 O 1011,1 0,0
09.11.2019 13:00:00 11,7 3,9 5 3 11 6 E 1011,4 -
09.11.2019 12:00:00 10,3 4,4 8 4 11 6 SSE 1011,9 0,0
09.11.2019 11:00:00 8,6 4,6 5 3 9 5 SSE 1013,0 0,0
09.11.2019 10:00:00 6,9 4,4 4 2 8 4 SSE 1013,4 0,0
09.11.2019 09:00:00 4,7 4,1 4 2 8 4 S 1013,8 0,0
09.11.2019 08:00:00 3,6 3,2 0 0 4 2 N 1013,5 0,0
09.11.2019 07:00:00 4,3 3,9 4 2 9 5 ESE 1013,0 -
09.11.2019 06:00:00 4,0 3,7 0 0 8 4 N 1012,4 0,0
09.11.2019 05:00:00 3,4 3,1 4 2 9 5 ONO 1011,6 0,0
09.11.2019 04:00:00 4,8 4,2 2 1 8 4 N 1011,0 0,0
09.11.2019 03:00:00 4,7 3,8 2 1 5 3 NE 1011,0 0,0
09.11.2019 02:00:00 5,7 4,8 2 1 5 3 SSE 1010,9 0,0
09.11.2019 01:00:00 5,8 4,9 0 0 5 3 N 1010,2 -
09.11.2019 00:00:00 5,8 4,8 0 0 5 3 N 1009,4 0,0
08.11.2019 23:00:00 6,0 4,8 4 2 8 4 NE 1008,9 0,0
08.11.2019 22:00:00 5,7 5,0 0 0 4 2 N 1008,6 0,0
08.11.2019 21:00:00 4,7 4,0 0 0 8 4 N 1008,1 0,0
08.11.2019 20:00:00 4,7 4,1 2 1 5 3 E 1007,5 0,0
08.11.2019 19:00:00 5,8 4,6 4 2 5 3 SE 1006,8 -
08.11.2019 18:00:00 6,2 4,5 0 0 5 3 N 1005,7 0,0
08.11.2019 17:00:00 8,6 5,2 0 0 9 5 N 1004,9 0,0
08.11.2019 16:00:00 10,8 4,5 5 3 13 7 SSO 1004,3 0,0
08.11.2019 15:00:00 11,6 4,3 0 0 8 4 N 1003,9 0,0
08.11.2019 14:00:00 11,4 4,6 0 0 8 4 N 1004,0 0,0
08.11.2019 13:00:00 9,2 4,6 8 4 13 7 S 1004,1 -
08.11.2019 12:00:00 8,6 4,4 5 3 11 6 SO 1004,6 0,0
08.11.2019 11:00:00 7,8 5,6 2 1 5 3 SSO 1005,1 0,0
08.11.2019 10:00:00 6,8 5,3 4 2 8 4 N 1005,0 0,0
08.11.2019 09:00:00 6,1 5,2 0 0 4 2 N 1005,3 0,0

tt = Temperatura
td = dewpoint
ff = velocità del vento
fx = gusts
dd = direzione del vento
ppp = reduced air pressure
rr = precipitazioni

Stazioni seguenti

WeatherPro
AMSI
MeteoEarth